| time (UTC) | temp F | wind direction | speed knots | gust knots | rain 1hr in | rain 24hr in | rain mn in | humidity % | barometer mb |
| 20260504221114 | 82 | 126 | 3.5 | 12.2 | 0.00 | 0.00 | 0.00 | 25 | 1002.9 |
| 20260504220003 | 82 | 129 | 3.5 | 8.7 | 0.00 | 0.00 | 0.00 | 24 | 1002.9 |
| 20260504215613 | 82 | 130 | 3.5 | 9.6 | 0.00 | 0.00 | 0.00 | 24 | 1002.9 |
| 20260504214715 | 82 | 126 | 6.1 | 13.0 | 0.00 | 0.00 | 0.00 | 24 | 1002.9 |
| 20260504213813 | 82 | 113 | 4.3 | 12.2 | 0.00 | 0.00 | 0.00 | 25 | 1002.9 |
| 20260504212915 | 82 | 118 | 3.5 | 8.7 | 0.00 | 0.00 | 0.00 | 23 | 1002.9 |
| 20260504212013 | 82 | 116 | 3.5 | 7.8 | 0.00 | 0.00 | 0.00 | 23 | 1003.0 |
| 20260504210903 | 82 | 129 | 4.3 | 10.4 | 0.00 | 0.00 | 0.00 | 23 | 1003.1 |
| 20260504210212 | 81 | 138 | 4.3 | 8.7 | 0.00 | 0.00 | 0.00 | 25 | 1003.2 |
| 20260504205403 | 81 | 113 | 2.6 | 8.7 | 0.00 | 0.00 | 0.00 | 27 | 1003.2 |
| 20260504204503 | 81 | 125 | 3.5 | 8.7 | 0.00 | 0.00 | 0.00 | 24 | 1003.3 |
| 20260504203603 | 81 | 103 | 2.6 | 7.8 | 0.00 | 0.00 | 0.00 | 24 | 1003.4 |
| 20260504202703 | 81 | 100 | 2.6 | 9.6 | 0.00 | 0.00 | 0.00 | 25 | 1003.7 |
| 20260504201803 | 80 | 102 | 4.3 | 8.7 | 0.00 | 0.00 | 0.00 | 26 | 1003.8 |
| 20260504201115 | 81 | 109 | 4.3 | 9.6 | 0.00 | 0.00 | 0.00 | 26 | 1003.8 |
| 20260504200003 | 81 | 118 | 2.6 | 11.3 | 0.00 | 0.00 | 0.00 | 25 | 1003.9 |
| 20260504195403 | 81 | 130 | 1.7 | 7.8 | 0.00 | 0.00 | 0.00 | 26 | 1004.0 |
| 20260504194503 | 81 | 125 | 3.5 | 9.6 | 0.00 | 0.00 | 0.00 | 24 | 1004.0 |
| 20260504193603 | 80 | 106 | 4.3 | 9.6 | 0.00 | 0.00 | 0.00 | 25 | 1004.2 |
| 20260504192703 | 80 | 107 | 4.3 | 9.6 | 0.00 | 0.00 | 0.00 | 26 | 1004.2 |
| 20260504191803 | 79 | 107 | 6.1 | 11.3 | 0.00 | 0.00 | 0.00 | 27 | 1004.2 |
| 20260504191116 | 79 | 108 | 4.3 | 9.6 | 0.00 | 0.00 | 0.00 | 29 | 1004.3 |
| 20260504190003 | 79 | 100 | 2.6 | 7.8 | 0.00 | 0.00 | 0.00 | 29 | 1004.4 |
| 20260504185403 | 79 | 96 | 3.5 | 7.8 | 0.00 | 0.00 | 0.00 | 27 | 1004.4 |
| 20260504184712 | 79 | 86 | 3.5 | 9.6 | 0.00 | 0.00 | 0.00 | 27 | 1004.4 |
| 20260504183815 | 80 | 87 | 1.7 | 7.8 | 0.00 | 0.00 | 0.00 | 28 | 1004.4 |
| 20260504182703 | 80 | 92 | 1.7 | 9.6 | 0.00 | 0.00 | 0.00 | 25 | 1004.4 |
| 20260504181803 | 80 | 88 | 0.9 | 9.6 | 0.00 | 0.00 | 0.00 | 28 | 1004.6 |
| 20260504180903 | 80 | 85 | 0.9 | 9.6 | 0.00 | 0.00 | 0.00 | 27 | 1004.7 |
| 20260504180003 | 78 | 79 | 2.6 | 9.6 | 0.00 | 0.00 | 0.00 | 28 | 1004.7 |
| 20260504175616 | 78 | 83 | 2.6 | 9.6 | 0.00 | 0.00 | 0.00 | 28 | 1004.7 |
| 20260504174713 | 79 | 80 | 1.7 | 10.4 | 0.00 | 0.00 | 0.00 | 28 | 1004.8 |
| 20260504173815 | 80 | 67 | 0.9 | 9.6 | 0.00 | 0.00 | 0.00 | 27 | 1004.7 |
| 20260504172913 | 80 | 63 | 2.6 | 9.6 | 0.00 | 0.00 | 0.00 | 27 | 1004.8 |
| 20260504171803 | 81 | 11 | 1.7 | 8.7 | 0.00 | 0.00 | 0.00 | 27 | 1004.9 |
| 20260504170903 | 80 | 21 | 2.6 | 8.7 | 0.00 | 0.00 | 0.00 | 30 | 1004.9 |
| 20260504170215 | 79 | 29 | 1.7 | 7.8 | 0.00 | 0.00 | 0.00 | 30 | 1005.0 |
| 20260504160215 | 73 | 16 | 1.7 | 7.8 | 0.00 | 0.00 | 0.00 | 43 | 1005.1 |
| 20260504150903 | 69 | 360 | 1.7 | 7.8 | 0.00 | 0.00 | 0.00 | 48 | 1005.2 |
| 20260504140903 | 61 | 338 | 1.7 | 6.1 | 0.00 | 0.00 | 0.00 | 59 | 1005.3 |
| 20260504140217 | 61 | 331 | 1.7 | 7.0 | 0.00 | 0.00 | 0.00 | 60 | 1005.3 |
| 20260504130217 | 54 | 286 | 0.9 | 2.6 | 0.00 | 0.00 | 0.00 | 75 | 1004.4 |
| 20260504110213 | 50 | 0 | 0.0 | 0.0 | 0.00 | 0.00 | 0.00 | 74 | 1003.6 |
| 20260504081113 | 56 | 88 | 0.9 | 4.3 | 0.00 | 0.00 | 0.00 | 65 | 1004.9 |
| 20260504080215 | 55 | 0 | 0.0 | 1.7 | 0.00 | 0.00 | 0.00 | 66 | 1005.0 |
| 20260504070216 | 57 | 88 | 2.6 | 6.1 | 0.00 | 0.00 | 0.00 | 62 | 1005.3 |
| 20260504050005 | 64 | 99 | 6.1 | 9.6 | 0.00 | 0.00 | 0.00 | 45 | 1006.6 |
| 20260504045614 | 64 | 100 | 6.1 | 9.6 | 0.00 | 0.00 | 0.00 | 45 | 1006.8 |
| 20260504044716 | 64 | 93 | 7.0 | 10.4 | 0.00 | 0.00 | 0.00 | 45 | 1006.9 |
| 20260504043813 | 64 | 89 | 7.8 | 12.2 | 0.00 | 0.00 | 0.00 | 44 | 1007.1 |
| 20260504042916 | 64 | 86 | 6.1 | 12.2 | 0.00 | 0.00 | 0.00 | 44 | 1007.1 |
| 20260504041803 | 64 | 87 | 4.3 | 10.4 | 0.00 | 0.00 | 0.00 | 44 | 1007.3 |
| 20260504041115 | 63 | 76 | 3.5 | 9.6 | 0.00 | 0.00 | 0.00 | 45 | 1007.4 |
| 20260504040003 | 64 | 79 | 6.1 | 9.6 | 0.00 | 0.00 | 0.00 | 43 | 1007.7 |
| 20260504035614 | 65 | 81 | 6.1 | 10.4 | 0.00 | 0.00 | 0.00 | 43 | 1007.7 |
| 20260504034717 | 66 | 80 | 7.0 | 12.2 | 0.00 | 0.00 | 0.00 | 41 | 1007.7 |
| 20260504033603 | 67 | 78 | 7.0 | 15.6 | 0.00 | 0.00 | 0.00 | 38 | 1007.9 |
| 20260504032916 | 67 | 74 | 4.3 | 13.9 | 0.00 | 0.00 | 0.00 | 40 | 1007.9 |
| 20260504031803 | 66 | 77 | 3.5 | 13.0 | 0.00 | 0.00 | 0.00 | 41 | 1008.1 |
| 20260504030903 | 66 | 68 | 1.7 | 8.7 | 0.00 | 0.00 | 0.00 | 41 | 1007.9 |
| 20260504030003 | 67 | 76 | 5.2 | 12.2 | 0.00 | 0.00 | 0.00 | 41 | 1008.0 |
| 20260504025615 | 67 | 76 | 6.1 | 12.2 | 0.00 | 0.00 | 0.00 | 41 | 1008.1 |
| 20260504024503 | 66 | 78 | 0.9 | 5.2 | 0.00 | 0.00 | 0.00 | 43 | 1008.0 |
| 20260504023815 | 66 | 77 | 0.9 | 7.0 | 0.00 | 0.00 | 0.00 | 43 | 1007.9 |
| 20260504022917 | 67 | 75 | 1.7 | 6.1 | 0.00 | 0.00 | 0.00 | 42 | 1007.9 |
| 20260504021803 | 68 | 78 | 2.6 | 11.3 | 0.00 | 0.00 | 0.00 | 42 | 1007.9 |
| 20260504021117 | 68 | 49 | 0.9 | 6.1 | 0.00 | 0.00 | 0.00 | 42 | 1007.8 |
| 20260504020003 | 68 | 27 | 0.9 | 2.6 | 0.00 | 0.00 | 0.00 | 42 | 1008.1 |
| 20260504015403 | 69 | 82 | 0.9 | 4.3 | 0.00 | 0.00 | 0.00 | 42 | 1007.8 |
| 20260504014503 | 69 | 19 | 0.9 | 6.1 | 0.00 | 0.00 | 0.00 | 41 | 1007.7 |
| 20260504013603 | 70 | 0 | 0.0 | 3.5 | 0.00 | 0.00 | 0.00 | 41 | 1007.7 |
| 20260504012703 | 71 | 57 | 0.9 | 6.1 | 0.00 | 0.00 | 0.00 | 40 | 1007.6 |
| 20260504012015 | 71 | 48 | 0.9 | 6.1 | 0.00 | 0.00 | 0.00 | 39 | 1007.5 |
| 20260504011117 | 72 | 75 | 0.9 | 5.2 | 0.00 | 0.00 | 0.00 | 38 | 1007.3 |
| 20260504010215 | 72 | 7 | 0.9 | 7.0 | 0.00 | 0.00 | 0.00 | 38 | 1007.4 |
| 20260504005403 | 73 | 71 | 1.7 | 8.7 | 0.00 | 0.00 | 0.00 | 37 | 1007.4 |
| 20260504004713 | 74 | 86 | 7.0 | 13.0 | 0.00 | 0.00 | 0.00 | 36 | 1007.2 |
| 20260504003816 | 74 | 93 | 7.0 | 12.2 | 0.00 | 0.00 | 0.00 | 35 | 1007.1 |
| 20260504002913 | 75 | 94 | 7.0 | 13.0 | 0.00 | 0.00 | 0.00 | 35 | 1007.1 |
| 20260504001803 | 76 | 94 | 7.0 | 13.0 | 0.00 | 0.00 | 0.00 | 33 | 1007.2 |
| 20260504001113 | 76 | 95 | 7.8 | 13.0 | 0.00 | 0.00 | 0.00 | 32 | 1007.3 |
| 20260504000003 | 77 | 95 | 9.6 | 15.6 | 0.00 | 0.00 | 0.00 | 30 | 1007.4 |
| 20260503235403 | 78 | 96 | 9.6 | 15.6 | 0.00 | 0.00 | 0.00 | 30 | 1007.6 |
| 20260503234714 | 78 | 95 | 7.8 | 13.9 | 0.00 | 0.00 | 0.00 | 30 | 1007.7 |
| 20260503233816 | 79 | 87 | 10.4 | 16.5 | 0.00 | 0.00 | 0.00 | 30 | 1007.8 |
| 20260503232704 | 79 | 81 | 9.6 | 14.8 | 0.00 | 0.00 | 0.00 | 30 | 1007.7 |
| 20260503232016 | 79 | 83 | 9.6 | 15.6 | 0.00 | 0.00 | 0.00 | 28 | 1007.7 |
| 20260503230903 | 80 | 75 | 7.0 | 14.8 | 0.00 | 0.00 | 0.00 | 27 | 1007.8 |
| 20260503230003 | 82 | 82 | 4.3 | 15.6 | 0.00 | 0.00 | 0.00 | 28 | 1008.0 |
| 20260503225612 | 82 | 81 | 3.5 | 15.6 | 0.00 | 0.00 | 0.00 | 27 | 1008.0 |
| 20260503224715 | 83 | 43 | 3.5 | 12.2 | 0.00 | 0.00 | 0.00 | 25 | 1008.0 |
| 20260503223812 | 83 | 8 | 2.6 | 8.7 | 0.00 | 0.00 | 0.00 | 25 | 1008.0 |
| 20260503222703 | 84 | 46 | 0.9 | 6.1 | 0.00 | 0.00 | 0.00 | 22 | 1008.2 |
| 20260503222017 | 86 | 0 | 0.0 | 3.5 | 0.00 | 0.00 | 0.00 | 21 | 1008.3 |